Time,TemperatureF,DewpointF,PressureIn,WindDirection,WindDirectionDegrees,WindSpeedMPH,WindSpeedGustMPH,Humidity,HourlyPrecipIn,Conditions,Clouds,dailyrainin,SoftwareType,DateUTC
2013-10-25 00:01:00,42.9,38.7,30.13,NE,40,0.0,0.0,85,0.00,,,0.00,LWC V2.00 B2112,2013-10-25 04:01:00,
2013-10-25 00:02:00,42.9,38.7,30.13,NE,40,0.0,0.0,85,0.00,,,0.00,LWC V2.00 B2112,2013-10-25 04:02:00,
2013-10-25 00:07:00,43.1,39.2,30.13,NE,40,0.0,0.0,86,0.00,,,0.00,LWC V2.00 B2112,2013-10-25 04:07:00,
2013-10-25 00:12:00,43.2,39.0,30.13,NE,40,0.0,0.0,85,0.00,,,0.00,LWC V2.00 B2112,2013-10-25 04:12:00,
2013-10-25 00:17:00,43.3,38.8,30.13,NE,40,0.0,0.0,84,0.00,,,0.00,LWC V2.00 B2112,2013-10-25 04:17:00,
2013-10-25 00:22:00,43.3,39.1,30.13,NE,40,0.0,0.0,85,0.00,,,0.00,LWC V2.00 B2112,2013-10-25 04:22:00,
2013-10-25 00:27:00,43.5,39.3,30.13,NE,40,0.0,0.0,85,0.00,,,0.00,LWC V2.00 B2112,2013-10-25 04:27:00,
2013-10-25 00:32:00,43.5,39.0,30.13,NE,40,0.0,0.0,84,0.00,,,0.00,LWC V2.00 B2112,2013-10-25 04:32:00,
2013-10-25 00:37:00,43.5,39.0,30.13,NE,40,0.0,0.0,84,0.00,,,0.00,LWC V2.00 B2112,2013-10-25 04:37:00,
2013-10-25 00:42:00,43.5,39.0,30.13,NE,40,0.0,0.0,84,0.00,,,0.00,LWC V2.00 B2112,2013-10-25 04:42:00,
2013-10-25 00:47:00,43.5,39.0,30.13,NE,40,0.0,0.0,84,0.00,,,0.00,LWC V2.00 B2112,2013-10-25 04:47:00,
2013-10-25 00:52:00,43.6,39.1,30.13,NE,40,0.0,0.0,84,0.00,,,0.00,LWC V2.00 B2112,2013-10-25 04:52:00,
2013-10-25 00:57:00,43.6,39.1,30.13,NE,40,0.0,0.0,84,0.00,,,0.00,LWC V2.00 B2112,2013-10-25 04:57:00,
2013-10-25 01:02:00,43.6,38.8,30.13,NE,40,0.0,0.0,83,0.00,,,0.00,LWC V2.00 B2112,2013-10-25 05:02:00,
2013-10-25 01:07:00,43.6,39.1,30.13,NE,40,0.0,0.0,84,0.00,,,0.00,LWC V2.00 B2112,2013-10-25 05:07:00,
2013-10-25 01:12:00,43.6,38.8,30.13,NE,40,0.0,0.0,83,0.00,,,0.00,LWC V2.00 B2112,2013-10-25 05:12:00,
2013-10-25 01:17:00,43.6,37.8,30.13,NE,40,0.0,0.0,80,0.00,,,0.00,LWC V2.00 B2112,2013-10-25 05:17:00,
2013-10-25 01:22:00,43.6,37.8,30.13,NE,40,0.0,0.0,80,0.00,,,0.00,LWC V2.00 B2112,2013-10-25 05:22:00,
2013-10-25 01:27:00,43.6,37.5,30.13,NE,40,0.0,0.0,79,0.00,,,0.00,LWC V2.00 B2112,2013-10-25 05:27:00,
2013-10-25 01:32:00,43.6,37.2,30.13,NE,40,0.0,0.0,78,0.00,,,0.00,LWC V2.00 B2112,2013-10-25 05:32:00,
2013-10-25 01:37:00,43.8,37.7,30.13,NE,40,0.0,0.0,79,0.00,,,0.00,LWC V2.00 B2112,2013-10-25 05:37:00,
2013-10-25 01:42:00,43.8,37.1,30.13,NE,40,0.0,0.0,77,0.00,,,0.00,LWC V2.00 B2112,2013-10-25 05:42:00,
2013-10-25 01:47:00,43.9,36.8,30.13,NE,38,0.0,0.0,76,0.00,,,0.00,LWC V2.00 B2112,2013-10-25 05:47:00,
2013-10-25 01:52:00,43.9,36.5,30.14,ENE,71,0.0,0.0,75,0.00,,,0.00,LWC V2.00 B2112,2013-10-25 05:52:00,
2013-10-25 01:57:00,44.1,37.0,30.14,NE,45,0.0,2.0,76,0.00,,,0.00,LWC V2.00 B2112,2013-10-25 05:57:00,
2013-10-25 02:02:00,44.2,35.4,30.14,NE,49,0.0,0.0,71,0.00,,,0.00,LWC V2.00 B2112,2013-10-25 06:02:00,
2013-10-25 02:07:00,44.2,35.4,30.15,NE,49,0.0,0.0,71,0.00,,,0.00,LWC V2.00 B2112,2013-10-25 06:07:00,
2013-10-25 02:12:00,44.3,36.5,30.15,NE,49,0.0,0.0,74,0.00,,,0.00,LWC V2.00 B2112,2013-10-25 06:12:00,
2013-10-25 02:17:00,44.5,36.4,30.15,NE,49,0.0,0.0,73,0.00,,,0.00,LWC V2.00 B2112,2013-10-25 06:17:00,
2013-10-25 02:22:00,44.5,36.4,30.14,NE,49,0.0,0.0,73,0.00,,,0.00,LWC V2.00 B2112,2013-10-25 06:22:00,
2013-10-25 02:27:00,44.3,35.9,30.14,NE,49,0.0,0.0,72,0.00,,,0.00,LWC V2.00 B2112,2013-10-25 06:27:00,
2013-10-25 02:32:00,44.2,36.1,30.14,NE,49,0.0,0.0,73,0.00,,,0.00,LWC V2.00 B2112,2013-10-25 06:32:00,
2013-10-25 02:37:00,44.2,36.4,30.15,NE,49,0.0,0.0,74,0.00,,,0.00,LWC V2.00 B2112,2013-10-25 06:37:00,
2013-10-25 02:42:00,44.2,36.4,30.15,NE,49,0.0,0.0,74,0.00,,,0.00,LWC V2.00 B2112,2013-10-25 06:42:00,
2013-10-25 02:47:00,44.2,37.1,30.15,NE,49,0.0,0.0,76,0.00,,,0.00,LWC V2.00 B2112,2013-10-25 06:47:00,
2013-10-25 02:52:00,44.1,37.0,30.15,NE,49,0.0,0.0,76,0.00,,,0.00,LWC V2.00 B2112,2013-10-25 06:52:00,
2013-10-25 02:57:00,43.9,36.5,30.15,NE,49,0.0,0.0,75,0.00,,,0.00,LWC V2.00 B2112,2013-10-25 06:57:00,
2013-10-25 03:02:00,43.9,36.8,30.15,NE,49,0.0,0.0,76,0.00,,,0.00,LWC V2.00 B2112,2013-10-25 07:02:00,
2013-10-25 03:07:00,43.9,36.8,30.14,NE,49,0.0,0.0,76,0.00,,,0.00,LWC V2.00 B2112,2013-10-25 07:07:00,
2013-10-25 03:12:00,43.8,37.1,30.14,NE,49,0.0,0.0,77,0.00,,,0.00,LWC V2.00 B2112,2013-10-25 07:12:00,
2013-10-25 03:17:00,43.8,37.4,30.14,NE,49,0.0,0.0,78,0.00,,,0.00,LWC V2.00 B2112,2013-10-25 07:17:00,
2013-10-25 03:22:00,43.6,37.2,30.15,NE,49,0.0,0.0,78,0.00,,,0.00,LWC V2.00 B2112,2013-10-25 07:22:00,
2013-10-25 03:27:00,43.6,37.2,30.15,NE,49,0.0,0.0,78,0.00,,,0.00,LWC V2.00 B2112,2013-10-25 07:27:00,
2013-10-25 03:32:00,43.5,37.1,30.15,NE,49,0.0,0.0,78,0.00,,,0.00,LWC V2.00 B2112,2013-10-25 07:32:00,
2013-10-25 03:37:00,43.5,37.4,30.16,NE,49,0.0,0.0,79,0.00,,,0.00,LWC V2.00 B2112,2013-10-25 07:37:00,
2013-10-25 03:42:00,43.5,37.4,30.16,NE,49,0.0,0.0,79,0.00,,,0.00,LWC V2.00 B2112,2013-10-25 07:42:00,
2013-10-25 03:47:00,43.5,37.1,30.16,NE,49,0.0,0.0,78,0.00,,,0.00,LWC V2.00 B2112,2013-10-25 07:47:00,
2013-10-25 03:52:00,43.3,36.3,30.16,NE,49,0.0,0.0,76,0.00,,,0.00,LWC V2.00 B2112,2013-10-25 07:52:00,
2013-10-25 03:57:00,43.5,36.8,30.16,NE,49,0.0,0.0,77,0.00,,,0.00,LWC V2.00 B2112,2013-10-25 07:57:00,
2013-10-25 04:02:00,43.5,36.4,30.16,NE,49,0.0,0.0,76,0.00,,,0.00,LWC V2.00 B2112,2013-10-25 08:02:00,
2013-10-25 04:07:00,43.5,35.8,30.16,NE,49,0.0,0.0,74,0.00,,,0.00,LWC V2.00 B2112,2013-10-25 08:07:00,
2013-10-25 04:12:00,43.5,36.4,30.16,NE,49,0.0,0.0,76,0.00,,,0.00,LWC V2.00 B2112,2013-10-25 08:12:00,
2013-10-25 04:17:00,43.5,36.4,30.16,NE,49,0.0,0.0,76,0.00,,,0.00,LWC V2.00 B2112,2013-10-25 08:17:00,
2013-10-25 04:22:00,43.6,36.2,30.17,NE,49,0.0,0.0,75,0.00,,,0.00,LWC V2.00 B2112,2013-10-25 08:22:00,
2013-10-25 04:27:00,43.6,36.5,30.17,NE,49,0.0,0.0,76,0.00,,,0.00,LWC V2.00 B2112,2013-10-25 08:27:00,
2013-10-25 04:32:00,43.6,36.2,30.17,NE,49,0.0,0.0,75,0.00,,,0.00,LWC V2.00 B2112,2013-10-25 08:32:00,
2013-10-25 04:37:00,43.6,36.2,30.16,NE,49,0.0,0.0,75,0.00,,,0.00,LWC V2.00 B2112,2013-10-25 08:37:00,
2013-10-25 04:42:00,43.5,36.4,30.16,NE,49,0.0,0.0,76,0.00,,,0.00,LWC V2.00 B2112,2013-10-25 08:42:00,
2013-10-25 04:47:00,43.5,36.4,30.16,NE,49,0.0,0.0,76,0.00,,,0.00,LWC V2.00 B2112,2013-10-25 08:47:00,
2013-10-25 04:52:00,43.5,36.4,30.16,NE,49,0.0,0.0,76,0.00,,,0.00,LWC V2.00 B2112,2013-10-25 08:52:00,
2013-10-25 04:57:00,43.3,36.6,30.16,NE,49,0.0,0.0,77,0.00,,,0.00,LWC V2.00 B2112,2013-10-25 08:57:00,
2013-10-25 05:02:00,43.3,36.6,30.16,NE,49,0.0,0.0,77,0.00,,,0.00,LWC V2.00 B2112,2013-10-25 09:02:00,
2013-10-25 05:07:00,43.3,36.9,30.18,NE,49,0.0,0.0,78,0.00,,,0.00,LWC V2.00 B2112,2013-10-25 09:07:00,
2013-10-25 05:12:00,43.2,36.5,30.18,NE,49,0.0,0.0,77,0.00,,,0.00,LWC V2.00 B2112,2013-10-25 09:12:00,
2013-10-25 05:17:00,43.2,36.5,30.18,NE,49,0.0,0.0,77,0.00,,,0.00,LWC V2.00 B2112,2013-10-25 09:17:00,
2013-10-25 05:22:00,43.1,36.7,30.18,NE,49,0.0,0.0,78,0.00,,,0.00,LWC V2.00 B2112,2013-10-25 09:22:00,
2013-10-25 05:27:00,42.9,36.8,30.18,NE,49,0.0,0.0,79,0.00,,,0.00,LWC V2.00 B2112,2013-10-25 09:27:00,
2013-10-25 05:32:00,42.8,36.7,30.18,NE,49,0.0,0.0,79,0.00,,,0.00,LWC V2.00 B2112,2013-10-25 09:32:00,
2013-10-25 05:37:00,42.8,36.7,30.19,NE,49,0.0,0.0,79,0.00,,,0.00,LWC V2.00 B2112,2013-10-25 09:37:00,
2013-10-25 05:42:00,42.6,36.6,30.19,NE,49,0.0,0.0,79,0.00,,,0.00,LWC V2.00 B2112,2013-10-25 09:42:00,
2013-10-25 05:47:00,42.5,36.5,30.19,NE,49,0.0,0.0,79,0.00,,,0.00,LWC V2.00 B2112,2013-10-25 09:47:00,
2013-10-25 05:52:00,42.3,36.6,30.19,NE,49,0.0,0.0,80,0.00,,,0.00,LWC V2.00 B2112,2013-10-25 09:52:00,
2013-10-25 05:57:00,42.2,36.5,30.19,NE,49,0.0,0.0,80,0.00,,,0.00,LWC V2.00 B2112,2013-10-25 09:57:00,
2013-10-25 06:02:00,42.1,36.1,30.19,NE,49,0.0,0.0,79,0.00,,,0.00,LWC V2.00 B2112,2013-10-25 10:02:00,
2013-10-25 06:07:00,41.8,35.8,30.19,NE,49,0.0,0.0,79,0.00,,,0.00,LWC V2.00 B2112,2013-10-25 10:07:00,
2013-10-25 06:12:00,41.6,35.9,30.19,NE,49,0.0,0.0,80,0.00,,,0.00,LWC V2.00 B2112,2013-10-25 10:12:00,
2013-10-25 06:17:00,41.5,35.8,30.19,NE,49,0.0,0.0,80,0.00,,,0.00,LWC V2.00 B2112,2013-10-25 10:17:00,
2013-10-25 06:22:00,41.3,35.6,30.19,NE,49,0.0,0.0,80,0.00,,,0.00,LWC V2.00 B2112,2013-10-25 10:22:00,
2013-10-25 06:27:00,41.3,35.6,30.19,NE,49,0.0,0.0,80,0.00,,,0.00,LWC V2.00 B2112,2013-10-25 10:27:00,
2013-10-25 06:32:00,41.2,35.5,30.19,NE,49,0.0,0.0,80,0.00,,,0.00,LWC V2.00 B2112,2013-10-25 10:32:00,
2013-10-25 06:37:00,41.1,35.4,30.20,NE,49,0.0,0.0,80,0.00,,,0.00,LWC V2.00 B2112,2013-10-25 10:37:00,
2013-10-25 06:42:00,40.9,35.2,30.20,NE,49,0.0,0.0,80,0.00,,,0.00,LWC V2.00 B2112,2013-10-25 10:42:00,
2013-10-25 06:47:00,40.6,34.6,30.20,NE,49,0.0,0.0,79,0.00,,,0.00,LWC V2.00 B2112,2013-10-25 10:47:00,
2013-10-25 06:52:00,40.5,34.8,30.20,NE,49,0.0,0.0,80,0.00,,,0.00,LWC V2.00 B2112,2013-10-25 10:52:00,
2013-10-25 06:57:00,40.3,34.6,30.20,NE,49,0.0,0.0,80,0.00,,,0.00,LWC V2.00 B2112,2013-10-25 10:57:00,
2013-10-25 07:02:00,40.2,34.5,30.20,NE,49,0.0,0.0,80,0.00,,,0.00,LWC V2.00 B2112,2013-10-25 11:02:00,
2013-10-25 07:07:00,39.9,34.2,30.21,NE,49,0.0,0.0,80,0.00,,,0.00,LWC V2.00 B2112,2013-10-25 11:07:00,
2013-10-25 07:12:00,39.8,34.5,30.21,NE,49,0.0,0.0,81,0.00,,,0.00,LWC V2.00 B2112,2013-10-25 11:12:00,
2013-10-25 07:17:00,39.5,34.2,30.21,NE,49,0.0,0.0,81,0.00,,,0.00,LWC V2.00 B2112,2013-10-25 11:17:00,
2013-10-25 07:22:00,39.3,34.3,30.21,NE,49,0.0,0.0,82,0.00,,,0.00,LWC V2.00 B2112,2013-10-25 11:22:00,
2013-10-25 07:27:00,39.2,34.5,30.21,NE,49,0.0,0.0,83,0.00,,,0.00,LWC V2.00 B2112,2013-10-25 11:27:00,
2013-10-25 07:32:00,39.1,34.4,30.21,NE,49,0.0,0.0,83,0.00,,,0.00,LWC V2.00 B2112,2013-10-25 11:32:00,
2013-10-25 07:37:00,38.9,34.5,30.22,NE,49,0.0,0.0,84,0.00,,,0.00,LWC V2.00 B2112,2013-10-25 11:37:00,
2013-10-25 07:42:00,38.8,34.4,30.22,NE,49,0.0,0.0,84,0.00,,,0.00,LWC V2.00 B2112,2013-10-25 11:42:00,
2013-10-25 07:47:00,38.5,34.1,30.22,NE,49,0.0,0.0,84,0.00,,,0.00,LWC V2.00 B2112,2013-10-25 11:47:00,
2013-10-25 07:52:00,38.3,33.9,30.23,NE,49,0.0,0.0,84,0.00,,,0.00,LWC V2.00 B2112,2013-10-25 11:52:00,
2013-10-25 07:57:00,38.2,34.1,30.23,NE,49,0.0,0.0,85,0.00,,,0.00,LWC V2.00 B2112,2013-10-25 11:57:00,
2013-10-25 08:02:00,38.0,34.2,30.23,NE,49,0.0,0.0,86,0.00,,,0.00,LWC V2.00 B2112,2013-10-25 12:02:00,
2013-10-25 08:07:00,37.9,34.1,30.24,NE,49,0.0,0.0,86,0.00,,,0.00,LWC V2.00 B2112,2013-10-25 12:07:00,
2013-10-25 08:12:00,37.8,34.3,30.24,NE,49,0.0,0.0,87,0.00,,,0.00,LWC V2.00 B2112,2013-10-25 12:12:00,
2013-10-25 08:17:00,37.8,34.3,30.24,NE,49,0.0,0.0,87,0.00,,,0.00,LWC V2.00 B2112,2013-10-25 12:17:00,
2013-10-25 08:22:00,37.8,34.6,30.24,NE,49,0.0,0.0,88,0.00,,,0.00,LWC V2.00 B2112,2013-10-25 12:22:00,
2013-10-25 08:27:00,37.8,34.6,30.24,NE,49,0.0,0.0,88,0.00,,,0.00,LWC V2.00 B2112,2013-10-25 12:27:00,
2013-10-25 08:32:00,37.8,34.6,30.24,NE,49,0.0,0.0,88,0.00,,,0.00,LWC V2.00 B2112,2013-10-25 12:32:00,
2013-10-25 08:37:00,38.0,35.1,30.24,NE,49,0.0,0.0,89,0.00,,,0.00,LWC V2.00 B2112,2013-10-25 12:37:00,
2013-10-25 08:42:00,38.2,35.0,30.24,NE,49,0.0,0.0,88,0.00,,,0.00,LWC V2.00 B2112,2013-10-25 12:42:00,
2013-10-25 08:47:00,38.5,35.3,30.24,NE,49,0.0,0.0,88,0.00,,,0.00,LWC V2.00 B2112,2013-10-25 12:47:00,
2013-10-25 08:52:00,38.9,35.4,30.25,NE,49,0.0,0.0,87,0.00,,,0.00,LWC V2.00 B2112,2013-10-25 12:52:00,
2013-10-25 08:57:00,39.2,35.4,30.25,NE,34,0.0,0.0,86,0.00,,,0.00,LWC V2.00 B2112,2013-10-25 12:57:00,
2013-10-25 09:02:00,39.6,33.9,30.25,ENE,61,0.0,0.0,80,0.00,,,0.00,LWC V2.00 B2112,2013-10-25 13:02:00,
2013-10-25 09:07:00,40.1,34.1,30.25,ENE,58,0.0,0.0,79,0.00,,,0.00,LWC V2.00 B2112,2013-10-25 13:07:00,
2013-10-25 09:12:00,40.6,33.6,30.25,NE,37,0.0,1.0,76,0.00,,,0.00,LWC V2.00 B2112,2013-10-25 13:12:00,
2013-10-25 09:17:00,41.1,34.8,30.25,NE,37,0.0,0.0,78,0.00,,,0.00,LWC V2.00 B2112,2013-10-25 13:17:00,
2013-10-25 09:22:00,41.6,34.6,30.26,NE,37,0.0,0.0,76,0.00,,,0.00,LWC V2.00 B2112,2013-10-25 13:22:00,
2013-10-25 09:27:00,42.2,33.8,30.26,NE,44,0.0,0.0,72,0.00,,,0.00,LWC V2.00 B2112,2013-10-25 13:27:00,
2013-10-25 09:32:00,42.6,32.8,30.26,ENE,69,0.0,2.0,68,0.00,,,0.00,LWC V2.00 B2112,2013-10-25 13:32:00,
2013-10-25 09:37:00,43.1,34.0,30.26,ENE,77,0.0,0.0,70,0.00,,,0.00,LWC V2.00 B2112,2013-10-25 13:37:00,
2013-10-25 09:42:00,43.5,34.4,30.26,ENE,77,0.0,0.0,70,0.00,,,0.00,LWC V2.00 B2112,2013-10-25 13:42:00,
2013-10-25 09:47:00,43.9,33.7,30.26,ENE,67,0.0,0.0,67,0.00,,,0.00,LWC V2.00 B2112,2013-10-25 13:47:00,
2013-10-25 09:52:00,44.2,32.8,30.26,ENE,67,0.0,1.0,64,0.00,,,0.00,LWC V2.00 B2112,2013-10-25 13:52:00,
2013-10-25 09:57:00,44.5,33.5,30.26,ENE,69,0.0,0.0,65,0.00,,,0.00,LWC V2.00 B2112,2013-10-25 13:57:00,
2013-10-25 10:02:00,44.8,32.2,30.26,ENE,77,0.0,1.0,61,0.00,,,0.00,LWC V2.00 B2112,2013-10-25 14:02:00,
2013-10-25 10:07:00,44.9,31.9,30.26,ENE,61,0.0,0.0,60,0.00,,,0.00,LWC V2.00 B2112,2013-10-25 14:07:00,
2013-10-25 10:12:00,45.4,31.9,30.26,ENE,63,0.0,0.0,59,0.00,,,0.00,LWC V2.00 B2112,2013-10-25 14:12:00,
2013-10-25 10:17:00,45.8,31.9,30.26,North,0,0.0,0.0,58,0.00,,,0.00,LWC V2.00 B2112,2013-10-25 14:17:00,
2013-10-25 10:22:00,46.1,31.7,30.26,North,351,0.0,0.0,57,0.00,,,0.00,LWC V2.00 B2112,2013-10-25 14:22:00,
2013-10-25 10:27:00,46.4,31.1,30.26,ENE,61,0.0,2.0,55,0.00,,,0.00,LWC V2.00 B2112,2013-10-25 14:27:00,
2013-10-25 10:32:00,46.8,31.0,30.26,West,267,1.0,1.0,54,0.00,,,0.00,LWC V2.00 B2112,2013-10-25 14:32:00,
2013-10-25 10:37:00,47.0,30.8,30.26,West,269,0.0,2.0,53,0.00,,,0.00,LWC V2.00 B2112,2013-10-25 14:37:00,
2013-10-25 10:42:00,47.1,30.4,30.26,West,264,0.0,1.0,52,0.00,,,0.00,LWC V2.00 B2112,2013-10-25 14:42:00,
2013-10-25 10:47:00,47.6,33.6,30.26,WNW,286,0.0,0.0,58,0.00,,,0.00,LWC V2.00 B2112,2013-10-25 14:47:00,
2013-10-25 10:52:00,47.7,30.5,30.25,West,276,0.0,0.0,51,0.00,,,0.00,LWC V2.00 B2112,2013-10-25 14:52:00,
2013-10-25 10:57:00,48.0,30.7,30.25,WNW,296,0.0,0.0,51,0.00,,,0.00,LWC V2.00 B2112,2013-10-25 14:57:00,
2013-10-25 11:02:00,48.2,30.9,30.25,ENE,59,0.0,2.0,51,0.00,,,0.00,LWC V2.00 B2112,2013-10-25 15:02:00,
2013-10-25 11:07:00,48.5,31.2,30.25,ESE,103,0.0,0.0,51,0.00,,,0.00,LWC V2.00 B2112,2013-10-25 15:07:00,
2013-10-25 11:12:00,48.6,31.3,30.25,ESE,103,0.0,0.0,51,0.00,,,0.00,LWC V2.00 B2112,2013-10-25 15:12:00,
2013-10-25 11:17:00,48.9,31.6,30.25,East,86,0.0,0.0,51,0.00,,,0.00,LWC V2.00 B2112,2013-10-25 15:17:00,
2013-10-25 11:22:00,49.1,31.3,30.26,East,96,0.0,0.0,50,0.00,,,0.00,LWC V2.00 B2112,2013-10-25 15:22:00,
2013-10-25 11:27:00,49.4,31.0,30.26,East,84,0.0,0.0,49,0.00,,,0.00,LWC V2.00 B2112,2013-10-25 15:27:00,
2013-10-25 11:32:00,49.5,31.6,30.26,ENE,57,0.0,1.0,50,0.00,,,0.00,LWC V2.00 B2112,2013-10-25 15:32:00,
2013-10-25 11:37:00,49.8,29.9,30.26,East,80,0.0,0.0,46,0.00,,,0.00,LWC V2.00 B2112,2013-10-25 15:37:00,
2013-10-25 11:42:00,50.7,30.1,30.26,NE,44,0.0,0.0,45,0.00,,,0.00,LWC V2.00 B2112,2013-10-25 15:42:00,
2013-10-25 11:47:00,51.3,31.2,30.26,South,177,1.0,2.0,46,0.00,,,0.00,LWC V2.00 B2112,2013-10-25 15:47:00,
2013-10-25 11:52:00,51.7,31.6,30.26,NE,34,0.0,1.0,46,0.00,,,0.00,LWC V2.00 B2112,2013-10-25 15:52:00,
2013-10-25 11:57:00,52.2,32.0,30.26,ENE,76,0.0,0.0,46,0.00,,,0.00,LWC V2.00 B2112,2013-10-25 15:57:00,
2013-10-25 12:02:00,52.2,31.0,30.26,ENE,64,0.0,2.0,44,0.00,,,0.00,LWC V2.00 B2112,2013-10-25 16:02:00,
2013-10-25 12:07:00,52.0,33.4,30.25,East,85,0.0,0.0,49,0.00,,,0.00,LWC V2.00 B2112,2013-10-25 16:07:00,
2013-10-25 12:12:00,52.3,31.6,30.25,NNW,342,0.0,1.0,45,0.00,,,0.00,LWC V2.00 B2112,2013-10-25 16:12:00,
2013-10-25 12:17:00,52.8,32.1,30.25,NNE,22,0.0,0.0,45,0.00,,,0.00,LWC V2.00 B2112,2013-10-25 16:17:00,
2013-10-25 12:22:00,52.8,32.6,30.25,North,0,0.0,0.0,46,0.00,,,0.00,LWC V2.00 B2112,2013-10-25 16:22:00,
2013-10-25 12:27:00,52.9,32.7,30.25,ENE,57,0.0,0.0,46,0.00,,,0.00,LWC V2.00 B2112,2013-10-25 16:27:00,
2013-10-25 12:32:00,52.8,28.5,30.25,ENE,59,0.0,1.0,39,0.00,,,0.00,LWC V2.00 B2112,2013-10-25 16:32:00,
2013-10-25 12:37:00,52.6,28.4,30.25,East,84,0.0,1.0,39,0.00,,,0.00,LWC V2.00 B2112,2013-10-25 16:37:00,
2013-10-25 12:42:00,52.3,29.9,30.25,South,175,0.0,0.0,42,0.00,,,0.00,LWC V2.00 B2112,2013-10-25 16:42:00,
2013-10-25 12:47:00,52.2,29.8,30.25,NNE,18,0.0,0.0,42,0.00,,,0.00,LWC V2.00 B2112,2013-10-25 16:47:00,
2013-10-25 12:52:00,52.2,29.8,30.25,West,279,0.0,2.0,42,0.00,,,0.00,LWC V2.00 B2112,2013-10-25 16:52:00,
2013-10-25 12:57:00,52.2,29.8,30.25,NE,56,0.0,3.0,42,0.00,,,0.00,LWC V2.00 B2112,2013-10-25 16:57:00,
2013-10-25 13:02:00,52.3,29.9,30.25,East,85,0.0,2.0,42,0.00,,,0.00,LWC V2.00 B2112,2013-10-25 17:02:00,
2013-10-25 13:07:00,52.5,28.3,30.24,ENE,61,0.0,1.0,39,0.00,,,0.00,LWC V2.00 B2112,2013-10-25 17:07:00,
2013-10-25 13:12:00,52.3,31.0,30.24,SSW,205,0.0,0.0,44,0.00,,,0.00,LWC V2.00 B2112,2013-10-25 17:12:00,
2013-10-25 13:17:00,52.5,28.9,30.24,ENE,78,0.0,0.0,40,0.00,,,0.00,LWC V2.00 B2112,2013-10-25 17:17:00,
2013-10-25 13:22:00,52.5,28.3,30.24,East,90,0.0,1.0,39,0.00,,,0.00,LWC V2.00 B2112,2013-10-25 17:22:00,
2013-10-25 13:27:00,52.6,30.7,30.24,ENE,57,1.0,1.0,43,0.00,,,0.00,LWC V2.00 B2112,2013-10-25 17:27:00,
2013-10-25 13:32:00,52.8,27.9,30.24,North,0,0.0,1.0,38,0.00,,,0.00,LWC V2.00 B2112,2013-10-25 17:32:00,
2013-10-25 13:37:00,52.9,28.0,30.24,ENE,71,0.0,1.0,38,0.00,,,0.00,LWC V2.00 B2112,2013-10-25 17:37:00,
2013-10-25 13:42:00,52.9,31.0,30.24,North,0,0.0,1.0,43,0.00,,,0.00,LWC V2.00 B2112,2013-10-25 17:42:00,
2013-10-25 13:47:00,52.9,27.3,30.24,ENE,70,0.0,2.0,37,0.00,,,0.00,LWC V2.00 B2112,2013-10-25 17:47:00,
2013-10-25 13:52:00,53.2,28.9,30.23,East,87,0.0,0.0,39,0.00,,,0.00,LWC V2.00 B2112,2013-10-25 17:52:00,
2013-10-25 13:57:00,53.2,28.3,30.23,East,90,0.0,0.0,38,0.00,,,0.00,LWC V2.00 B2112,2013-10-25 17:57:00,
2013-10-25 14:02:00,53.5,32.7,30.23,ENE,78,0.0,0.0,45,0.00,,,0.00,LWC V2.00 B2112,2013-10-25 18:02:00,
2013-10-25 14:07:00,53.6,30.5,30.23,NE,46,0.0,0.0,41,0.00,,,0.00,LWC V2.00 B2112,2013-10-25 18:07:00,
2013-10-25 14:12:00,53.6,28.6,30.23,ENE,59,0.0,2.0,38,0.00,,,0.00,LWC V2.00 B2112,2013-10-25 18:12:00,
2013-10-25 14:17:00,53.6,27.3,30.23,East,81,0.0,2.0,36,0.00,,,0.00,LWC V2.00 B2112,2013-10-25 18:17:00,
2013-10-25 14:22:00,53.3,28.3,30.23,East,82,0.0,4.0,38,0.00,,,0.00,LWC V2.00 B2112,2013-10-25 18:22:00,
2013-10-25 14:27:00,53.5,28.5,30.23,East,85,0.0,1.0,38,0.00,,,0.00,LWC V2.00 B2112,2013-10-25 18:27:00,
2013-10-25 14:32:00,53.5,29.2,30.23,ENE,64,0.0,1.0,39,0.00,,,0.00,LWC V2.00 B2112,2013-10-25 18:32:00,
2013-10-25 14:37:00,53.5,30.4,30.22,North,0,0.0,1.0,41,0.00,,,0.00,LWC V2.00 B2112,2013-10-25 18:37:00,
2013-10-25 14:42:00,53.5,27.9,30.22,East,82,0.0,1.0,37,0.00,,,0.00,LWC V2.00 B2112,2013-10-25 18:42:00,
2013-10-25 14:47:00,53.5,28.5,30.22,East,98,0.0,2.0,38,0.00,,,0.00,LWC V2.00 B2112,2013-10-25 18:47:00,
2013-10-25 14:52:00,53.5,27.9,30.22,SW,235,1.0,1.0,37,0.00,,,0.00,LWC V2.00 B2112,2013-10-25 18:52:00,
2013-10-25 14:57:00,53.6,28.0,30.22,NNE,15,0.0,2.0,37,0.00,,,0.00,LWC V2.00 B2112,2013-10-25 18:57:00,
2013-10-25 15:02:00,53.6,27.3,30.22,East,90,0.0,0.0,36,0.00,,,0.00,LWC V2.00 B2112,2013-10-25 19:02:00,
2013-10-25 15:07:00,53.8,29.4,30.22,East,90,0.0,2.0,39,0.00,,,0.00,LWC V2.00 B2112,2013-10-25 19:07:00,
2013-10-25 15:12:00,53.8,31.8,30.22,East,90,0.0,0.0,43,0.00,,,0.00,LWC V2.00 B2112,2013-10-25 19:12:00,
2013-10-25 15:17:00,53.8,28.1,30.22,East,82,0.0,1.0,37,0.00,,,0.00,LWC V2.00 B2112,2013-10-25 19:17:00,
2013-10-25 15:22:00,53.8,30.7,30.22,East,82,0.0,0.0,41,0.00,,,0.00,LWC V2.00 B2112,2013-10-25 19:22:00,
2013-10-25 15:27:00,53.9,29.5,30.22,NNE,26,1.0,2.0,39,0.00,,,0.00,LWC V2.00 B2112,2013-10-25 19:27:00,
2013-10-25 15:32:00,53.8,29.4,30.22,WSW,252,0.0,0.0,39,0.00,,,0.00,LWC V2.00 B2112,2013-10-25 19:32:00,
2013-10-25 15:37:00,53.8,30.7,30.22,WSW,252,0.0,0.0,41,0.00,,,0.00,LWC V2.00 B2112,2013-10-25 19:37:00,
2013-10-25 15:42:00,53.8,29.4,30.22,North,355,0.0,1.0,39,0.00,,,0.00,LWC V2.00 B2112,2013-10-25 19:42:00,
2013-10-25 15:47:00,53.9,29.5,30.22,North,355,0.0,0.0,39,0.00,,,0.00,LWC V2.00 B2112,2013-10-25 19:47:00,
2013-10-25 15:52:00,53.9,28.9,30.22,ENE,67,0.0,1.0,38,0.00,,,0.00,LWC V2.00 B2112,2013-10-25 19:52:00,
2013-10-25 15:57:00,53.9,30.7,30.22,ENE,67,0.0,0.0,41,0.00,,,0.00,LWC V2.00 B2112,2013-10-25 19:57:00,
2013-10-25 16:02:00,53.8,28.8,30.22,West,280,0.0,0.0,38,0.00,,,0.00,LWC V2.00 B2112,2013-10-25 20:02:00,
2013-10-25 16:07:00,53.6,31.1,30.22,NNE,30,0.0,0.0,42,0.00,,,0.00,LWC V2.00 B2112,2013-10-25 20:07:00,
2013-10-25 16:12:00,53.6,29.3,30.22,ENE,61,0.0,0.0,39,0.00,,,0.00,LWC V2.00 B2112,2013-10-25 20:12:00,
2013-10-25 16:17:00,53.6,28.6,30.22,ENE,58,0.0,0.0,38,0.00,,,0.00,LWC V2.00 B2112,2013-10-25 20:17:00,
2013-10-25 16:22:00,53.6,29.3,30.22,NNE,23,0.0,1.0,39,0.00,,,0.00,LWC V2.00 B2112,2013-10-25 20:22:00,
2013-10-25 16:27:00,53.5,29.8,30.22,NNE,23,0.0,0.0,40,0.00,,,0.00,LWC V2.00 B2112,2013-10-25 20:27:00,
2013-10-25 16:32:00,53.3,27.7,30.22,ENE,69,0.0,1.0,37,0.00,,,0.00,LWC V2.00 B2112,2013-10-25 20:32:00,
2013-10-25 16:37:00,53.3,27.7,30.23,NE,47,0.0,1.0,37,0.00,,,0.00,LWC V2.00 B2112,2013-10-25 20:37:00,
2013-10-25 16:42:00,53.3,29.6,30.23,NE,47,0.0,0.0,40,0.00,,,0.00,LWC V2.00 B2112,2013-10-25 20:42:00,
2013-10-25 16:47:00,53.2,28.9,30.23,NE,53,0.0,0.0,39,0.00,,,0.00,LWC V2.00 B2112,2013-10-25 20:47:00,
2013-10-25 16:52:00,53.2,31.3,30.23,NE,53,0.0,0.0,43,0.00,,,0.00,LWC V2.00 B2112,2013-10-25 20:52:00,
2013-10-25 16:57:00,53.2,28.9,30.23,NE,53,0.0,0.0,39,0.00,,,0.00,LWC V2.00 B2112,2013-10-25 20:57:00,
2013-10-25 17:03:00,53.2,29.5,30.23,NE,51,0.0,0.0,40,0.00,,,0.00,LWC V2.00 B2112,2013-10-25 21:03:00,
2013-10-25 17:08:00,53.2,31.3,30.23,NE,51,0.0,0.0,43,0.00,,,0.00,LWC V2.00 B2112,2013-10-25 21:08:00,
2013-10-25 17:13:00,53.1,29.4,30.23,NE,43,0.0,0.0,40,0.00,,,0.00,LWC V2.00 B2112,2013-10-25 21:13:00,
2013-10-25 17:18:00,52.8,29.2,30.23,NE,43,0.0,1.0,40,0.00,,,0.00,LWC V2.00 B2112,2013-10-25 21:18:00,
2013-10-25 17:23:00,52.6,31.3,30.24,NE,42,0.0,0.0,44,0.00,,,0.00,LWC V2.00 B2112,2013-10-25 21:23:00,
2013-10-25 17:28:00,52.5,31.8,30.24,NE,42,0.0,0.0,45,0.00,,,0.00,LWC V2.00 B2112,2013-10-25 21:28:00,
2013-10-25 17:33:00,52.2,30.4,30.24,NE,43,0.0,0.0,43,0.00,,,0.00,LWC V2.00 B2112,2013-10-25 21:33:00,
2013-10-25 17:38:00,52.0,31.9,30.24,NE,43,0.0,0.0,46,0.00,,,0.00,LWC V2.00 B2112,2013-10-25 21:38:00,
2013-10-25 17:43:00,51.7,31.1,30.24,NE,43,0.0,0.0,45,0.00,,,0.00,LWC V2.00 B2112,2013-10-25 21:43:00,
2013-10-25 17:48:00,51.4,32.9,30.24,NE,43,0.0,0.0,49,0.00,,,0.00,LWC V2.00 B2112,2013-10-25 21:48:00,
2013-10-25 17:53:00,51.1,31.6,30.24,NE,43,0.0,0.0,47,0.00,,,0.00,LWC V2.00 B2112,2013-10-25 21:53:00,
2013-10-25 17:58:00,51.0,33.0,30.24,NE,43,0.0,0.0,50,0.00,,,0.00,LWC V2.00 B2112,2013-10-25 21:58:00,
2013-10-25 18:03:00,50.5,33.1,30.24,NE,43,0.0,0.0,51,0.00,,,0.00,LWC V2.00 B2112,2013-10-25 22:03:00,
2013-10-25 18:08:00,50.4,33.0,30.25,NE,43,0.0,0.0,51,0.00,,,0.00,LWC V2.00 B2112,2013-10-25 22:08:00,
2013-10-25 18:13:00,49.9,33.5,30.25,NE,43,0.0,0.0,53,0.00,,,0.00,LWC V2.00 B2112,2013-10-25 22:13:00,
2013-10-25 18:18:00,49.4,33.5,30.25,NE,43,0.0,0.0,54,0.00,,,0.00,LWC V2.00 B2112,2013-10-25 22:18:00,
2013-10-25 18:23:00,48.9,33.5,30.25,NE,43,0.0,0.0,55,0.00,,,0.00,LWC V2.00 B2112,2013-10-25 22:23:00,
2013-10-25 18:28:00,48.3,33.8,30.25,NE,43,0.0,0.0,57,0.00,,,0.00,LWC V2.00 B2112,2013-10-25 22:28:00,
2013-10-25 18:33:00,47.7,34.1,30.25,NE,43,0.0,0.0,59,0.00,,,0.00,LWC V2.00 B2112,2013-10-25 22:33:00,
2013-10-25 18:38:00,47.3,34.1,30.25,NE,43,0.0,0.0,60,0.00,,,0.00,LWC V2.00 B2112,2013-10-25 22:38:00,
2013-10-25 18:43:00,46.7,34.4,30.25,NE,43,0.0,0.0,62,0.00,,,0.00,LWC V2.00 B2112,2013-10-25 22:43:00,
2013-10-25 18:48:00,46.2,34.7,30.25,NE,43,0.0,0.0,64,0.00,,,0.00,LWC V2.00 B2112,2013-10-25 22:48:00,
2013-10-25 18:53:00,45.8,35.1,30.26,NE,43,0.0,0.0,66,0.00,,,0.00,LWC V2.00 B2112,2013-10-25 22:53:00,
2013-10-25 18:58:00,45.4,35.1,30.26,NE,43,0.0,0.0,67,0.00,,,0.00,LWC V2.00 B2112,2013-10-25 22:58:00,
2013-10-25 19:03:00,44.9,35.4,30.26,NE,43,0.0,0.0,69,0.00,,,0.00,LWC V2.00 B2112,2013-10-25 23:03:00,
2013-10-25 19:08:00,44.6,35.1,30.26,NE,43,0.0,0.0,69,0.00,,,0.00,LWC V2.00 B2112,2013-10-25 23:08:00,
2013-10-25 19:13:00,44.2,35.8,30.26,NE,43,0.0,0.0,72,0.00,,,0.00,LWC V2.00 B2112,2013-10-25 23:13:00,
2013-10-25 19:18:00,43.8,35.4,30.26,NE,43,0.0,0.0,72,0.00,,,0.00,LWC V2.00 B2112,2013-10-25 23:18:00,
2013-10-25 19:23:00,43.3,35.6,30.26,NE,43,0.0,0.0,74,0.00,,,0.00,LWC V2.00 B2112,2013-10-25 23:23:00,
2013-10-25 19:28:00,42.9,35.2,30.26,NE,43,0.0,0.0,74,0.00,,,0.00,LWC V2.00 B2112,2013-10-25 23:28:00,
2013-10-25 19:33:00,42.6,35.6,30.26,NE,43,0.0,0.0,76,0.00,,,0.00,LWC V2.00 B2112,2013-10-25 23:33:00,
2013-10-25 19:38:00,42.2,35.5,30.27,NE,43,0.0,0.0,77,0.00,,,0.00,LWC V2.00 B2112,2013-10-25 23:38:00,
2013-10-25 19:43:00,41.9,35.2,30.27,NE,43,0.0,0.0,77,0.00,,,0.00,LWC V2.00 B2112,2013-10-25 23:43:00,
2013-10-25 19:48:00,41.6,34.9,30.27,NE,43,0.0,0.0,77,0.00,,,0.00,LWC V2.00 B2112,2013-10-25 23:48:00,
2013-10-25 19:53:00,41.3,35.0,30.27,NE,43,0.0,0.0,78,0.00,,,0.00,LWC V2.00 B2112,2013-10-25 23:53:00,
2013-10-25 19:58:00,41.1,35.1,30.27,NE,43,0.0,0.0,79,0.00,,,0.00,LWC V2.00 B2112,2013-10-25 23:58:00,
2013-10-25 20:03:00,40.8,34.8,30.27,NE,43,0.0,0.0,79,0.00,,,0.00,LWC V2.00 B2112,2013-10-26 00:03:00,
2013-10-25 20:08:00,40.6,34.9,30.27,NE,43,0.0,0.0,80,0.00,,,0.00,LWC V2.00 B2112,2013-10-26 00:08:00,
2013-10-25 20:13:00,40.3,34.9,30.27,NE,43,0.0,0.0,81,0.00,,,0.00,LWC V2.00 B2112,2013-10-26 00:13:00,
2013-10-25 20:18:00,40.1,35.1,30.27,NE,43,0.0,0.0,82,0.00,,,0.00,LWC V2.00 B2112,2013-10-26 00:18:00,
2013-10-25 20:23:00,39.8,34.8,30.27,NE,43,0.0,0.0,82,0.00,,,0.00,LWC V2.00 B2112,2013-10-26 00:23:00,
2013-10-25 20:28:00,39.6,34.9,30.27,NE,43,0.0,0.0,83,0.00,,,0.00,LWC V2.00 B2112,2013-10-26 00:28:00,
2013-10-25 20:33:00,39.3,34.6,30.27,NE,43,0.0,0.0,83,0.00,,,0.00,LWC V2.00 B2112,2013-10-26 00:33:00,
2013-10-25 20:38:00,39.2,34.8,30.27,NE,43,0.0,0.0,84,0.00,,,0.00,LWC V2.00 B2112,2013-10-26 00:38:00,
2013-10-25 20:43:00,39.1,34.7,30.27,NE,43,0.0,0.0,84,0.00,,,0.00,LWC V2.00 B2112,2013-10-26 00:43:00,
2013-10-25 20:48:00,38.9,34.5,30.27,NE,43,0.0,0.0,84,0.00,,,0.00,LWC V2.00 B2112,2013-10-26 00:48:00,
2013-10-25 20:53:00,38.8,34.4,30.27,NE,43,0.0,0.0,84,0.00,,,0.00,LWC V2.00 B2112,2013-10-26 00:53:00,
2013-10-25 20:58:00,38.5,34.1,30.27,NE,43,0.0,0.0,84,0.00,,,0.00,LWC V2.00 B2112,2013-10-26 00:58:00,
2013-10-25 21:03:00,38.3,34.2,30.27,NE,43,0.0,0.0,85,0.00,,,0.00,LWC V2.00 B2112,2013-10-26 01:03:00,
2013-10-25 21:08:00,38.0,33.9,30.28,NE,43,0.0,0.0,85,0.00,,,0.00,LWC V2.00 B2112,2013-10-26 01:08:00,
2013-10-25 21:13:00,37.9,33.8,30.28,NE,43,0.0,0.0,85,0.00,,,0.00,LWC V2.00 B2112,2013-10-26 01:13:00,
2013-10-25 21:18:00,37.8,34.0,30.28,NE,43,0.0,0.0,86,0.00,,,0.00,LWC V2.00 B2112,2013-10-26 01:18:00,
2013-10-25 21:23:00,37.5,34.0,30.28,NE,43,0.0,0.0,87,0.00,,,0.00,LWC V2.00 B2112,2013-10-26 01:23:00,
2013-10-25 21:28:00,37.5,34.0,30.28,NE,43,0.0,0.0,87,0.00,,,0.00,LWC V2.00 B2112,2013-10-26 01:28:00,
2013-10-25 21:33:00,37.3,34.1,30.28,NE,43,0.0,0.0,88,0.00,,,0.00,LWC V2.00 B2112,2013-10-26 01:33:00,
2013-10-25 21:38:00,37.2,34.0,30.29,NE,43,0.0,0.0,88,0.00,,,0.00,LWC V2.00 B2112,2013-10-26 01:38:00,
2013-10-25 21:43:00,37.0,33.8,30.29,NE,43,0.0,0.0,88,0.00,,,0.00,LWC V2.00 B2112,2013-10-26 01:43:00,
2013-10-25 21:48:00,36.9,33.7,30.29,NE,43,0.0,0.0,88,0.00,,,0.00,LWC V2.00 B2112,2013-10-26 01:48:00,
2013-10-25 21:53:00,36.8,33.6,30.29,NE,43,0.0,0.0,88,0.00,,,0.00,LWC V2.00 B2112,2013-10-26 01:53:00,
2013-10-25 21:58:00,36.6,33.4,30.29,NE,43,0.0,0.0,88,0.00,,,0.00,LWC V2.00 B2112,2013-10-26 01:58:00,
2013-10-25 22:03:00,36.5,33.3,30.29,NE,43,0.0,0.0,88,0.00,,,0.00,LWC V2.00 B2112,2013-10-26 02:03:00,
2013-10-25 22:08:00,36.3,33.1,30.29,NE,43,0.0,0.0,88,0.00,,,0.00,LWC V2.00 B2112,2013-10-26 02:08:00,
2013-10-25 22:13:00,36.2,33.0,30.29,NE,43,0.0,0.0,88,0.00,,,0.00,LWC V2.00 B2112,2013-10-26 02:13:00,
2013-10-25 22:18:00,36.2,33.3,30.29,NE,43,0.0,0.0,89,0.00,,,0.00,LWC V2.00 B2112,2013-10-26 02:18:00,
2013-10-25 22:23:00,35.9,33.0,30.30,NE,43,0.0,0.0,89,0.00,,,0.00,LWC V2.00 B2112,2013-10-26 02:23:00,
2013-10-25 22:28:00,35.8,32.9,30.30,NE,43,0.0,0.0,89,0.00,,,0.00,LWC V2.00 B2112,2013-10-26 02:28:00,
2013-10-25 22:33:00,35.6,32.7,30.30,NE,43,0.0,0.0,89,0.00,,,0.00,LWC V2.00 B2112,2013-10-26 02:33:00,
2013-10-25 22:38:00,35.6,32.7,30.31,NE,43,0.0,0.0,89,0.00,,,0.00,LWC V2.00 B2112,2013-10-26 02:38:00,
2013-10-25 22:43:00,35.5,32.6,30.31,NE,43,0.0,0.0,89,0.00,,,0.00,LWC V2.00 B2112,2013-10-26 02:43:00,
2013-10-25 22:48:00,35.5,32.6,30.31,NE,43,0.0,0.0,89,0.00,,,0.00,LWC V2.00 B2112,2013-10-26 02:48:00,
2013-10-25 22:53:00,35.3,32.4,30.30,NE,43,0.0,0.0,89,0.00,,,0.00,LWC V2.00 B2112,2013-10-26 02:53:00,
2013-10-25 22:58:00,35.3,32.7,30.30,NE,43,0.0,0.0,90,0.00,,,0.00,LWC V2.00 B2112,2013-10-26 02:58:00,
2013-10-25 23:03:00,35.2,32.6,30.30,NE,43,0.0,0.0,90,0.00,,,0.00,LWC V2.00 B2112,2013-10-26 03:03:00,
2013-10-25 23:08:00,35.0,32.4,30.31,NE,43,0.0,0.0,90,0.00,,,0.00,LWC V2.00 B2112,2013-10-26 03:08:00,
2013-10-25 23:13:00,35.0,32.6,30.31,NE,43,0.0,0.0,91,0.00,,,0.00,LWC V2.00 B2112,2013-10-26 03:13:00,
2013-10-25 23:18:00,35.0,32.6,30.31,NE,43,0.0,0.0,91,0.00,,,0.00,LWC V2.00 B2112,2013-10-26 03:18:00,
2013-10-25 23:23:00,34.9,32.5,30.31,NE,43,0.0,0.0,91,0.00,,,0.00,LWC V2.00 B2112,2013-10-26 03:23:00,
2013-10-25 23:28:00,34.9,32.5,30.31,NE,43,0.0,0.0,91,0.00,,,0.00,LWC V2.00 B2112,2013-10-26 03:28:00,
2013-10-25 23:33:00,34.7,32.3,30.31,NE,43,0.0,0.0,91,0.00,,,0.00,LWC V2.00 B2112,2013-10-26 03:33:00,
2013-10-25 23:38:00,34.6,32.2,30.31,NE,43,0.0,0.0,91,0.00,,,0.00,LWC V2.00 B2112,2013-10-26 03:38:00,
2013-10-25 23:43:00,34.4,32.0,30.31,NE,43,0.0,0.0,91,0.00,,,0.00,LWC V2.00 B2112,2013-10-26 03:43:00,
2013-10-25 23:48:00,34.4,32.0,30.31,NE,43,0.0,0.0,91,0.00,,,0.00,LWC V2.00 B2112,2013-10-26 03:48:00,
2013-10-25 23:53:00,34.3,32.0,30.30,NE,43,0.0,0.0,91,0.00,,,0.00,LWC V2.00 B2112,2013-10-26 03:53:00,
2013-10-25 23:58:00,34.1,31.8,30.30,NE,43,0.0,0.0,91,0.00,,,0.00,LWC V2.00 B2112,2013-10-26 03:58:00,